Location: ICStars Ranch
(38.8297°N, 93.7687°W)
Time: 15:48:59
(UTC-06:00)

Daily predictions for brighter satellites

Satellite Brightness Start Highest point End
(mag) Time Altitude Azimuth Time Altitude Azimuth Time Altitude Azimuth
CZ-3A R/B 3.0 17:08:58 10° WSW 17:12:36 66° NNW 17:29:16 10° NE
MOS 1 4.4 17:14:46 10° SE 17:20:14 53° ENE 17:25:42 10° N
CORIOLIS 4.5 17:17:36 10° SE 17:22:42 44° ENE 17:27:48 10° N
SPOT 3 Rocket 3.7 17:21:04 10° SSE 17:26:08 55° ENE 17:31:12 10° N
PAYLOAD A 3.8 17:21:41 10° SSE 17:26:25 80° ENE 17:31:22 10° N
SMAP 3.2 17:23:29 10° SSE 17:27:58 52° ENE 17:32:30 10° N
YAOGAN 1 2.8 17:25:16 10° SSE 17:29:25 48° ENE 17:33:36 10° N
Cosmos 2278 Rocket 3.2 17:26:42 10° SSE 17:31:18 26° ESE 17:35:55 10° NE
COSMOS 2406 3.2 17:28:23 10° NNW 17:34:07 71° ENE 17:39:50 10° SSE
SL-8 Rocket 4.1 17:29:13 10° N 17:35:18 56° E 17:41:19 10° SSE
IDEFIX/ARIANE 42P 2.5 17:37:14 10° SSE 17:42:25 74° ENE 17:47:36 10° N
USA 32 4.0 17:37:22 10° S 17:42:29 62° E 17:47:39 10° NNE
Meteor 1-5 Rocket 4.1 17:39:20 10° N 17:44:45 80° E 17:50:19 10° SSE
Cosmos 2366 rocket 4.2 17:39:12 10° N 17:45:22 50° ENE 17:51:27 10° SSE
Cosmos 2181 Rocket 4.2 17:39:49 10° S 17:46:09 79° W 17:52:36 10° N
Cosmos 1484 Rocket 3.5 17:43:14 10° SE 17:46:29 28° ENE 17:49:44 10° NNE
OTV 4 1.3 17:43:45 10° W 17:46:39 47° SSW 17:49:34 10° ESE
SJ-7 4.4 17:42:30 10° SSE 17:46:42 72° ENE 17:50:57 10° N
Cosmos 2218 Rocket 4.0 17:41:02 10° N 17:47:15 59° E 17:53:21 10° SSE
CZ-3B DEB 1.8 17:44:10 10° SW 17:47:24 75° SE 17:55:17 11° NE
Meteor 2-19 Rocket 4.4 17:43:15 10° N 17:49:16 65° E 17:55:16 10° SSE
SKYMED 2 4.2 17:47:18 10° NNE 17:51:18 35° E 17:55:16 10° SSE
Cosmos 1959 Rocket 4.5 17:45:12 10° N 17:51:20 63° E 17:57:29 10° SSE
USA 234 4.1 17:46:18 10° NE 17:52:23 43° NNW 17:58:28 10° WSW
Cosmos 1455 Rocket 3.3 17:48:50 10° N 17:53:04 45° E 17:57:18 10° SSE
CZ-4 R/B 4.4 17:50:45 10° SSE 17:54:51 70° ENE 17:59:00 10° N
Cosmos 2082 Rocket 3.6 17:53:32 10° NNE 17:57:03 16° NE 17:57:45 16° ENE
Cosmos 1833 Rocket 4.2 17:59:42 10° NNE 18:02:45 16° NE 18:02:45 16° NE
BREEZE-M DEB (TANK) 4.0 17:57:24 10° WNW 18:03:27 56° SW 18:06:58 10° SE
NOSS 3-3 (A) 4.2 17:58:47 10° S 18:04:41 51° ESE 18:09:41 16° NE
NOSS 3-3 (C) 4.2 17:58:54 10° S 18:04:47 51° ESE 18:09:45 16° NE
Thor Agena Rocket 4.2 18:00:44 10° N 18:05:50 58° WNW 18:10:58 10° SSW
SL-8 R/B 3.9 18:01:32 10° SW 18:06:12 58° SE 18:09:03 23° ENE
Cosmos 494 Rocket 4.1 18:02:12 10° N 18:07:20 54° ENE 18:12:29 10° SE
Okean 1 3.4 18:06:47 10° S 18:10:44 55° E 18:14:30 11° NNE
Cosmos 1500 3.8 18:08:48 10° NNE 18:12:19 34° ENE 18:15:50 10° SE
Hubble Space Telescope 3.7 18:11:55 10° SSW 18:12:58 11° SSW 18:14:00 10° S
ATLAS 2AS CENTAUR R/B 2.9 18:06:48 10° NNW 18:14:55 73° NE 18:22:25 10° SE
Meteor 1-28 Rocket 3.8 18:15:04 30° ENE 18:16:05 35° E 18:19:36 10° SSE
Meteor 1-18 Rocket 4.2 18:14:55 10° S 18:20:32 86° W 18:26:17 10° N
ISS -1.7 18:17:37 10° W 18:20:32 28° NNW 18:21:49 22° N
Cosmos 2251 Rocket 3.5 18:15:35 10° NNW 18:20:59 84° ENE 18:26:18 10° SSE
SL-27 R/B 3.4 18:26:13 10° NNW 18:29:47 51° WSW 18:33:19 10° S
Cosmos 1812 3.5 18:27:21 10° SSW 18:31:07 53° W 18:34:54 10° N
Cosmos 1346 Rocket 2.7 18:27:47 10° S 18:31:39 61° E 18:32:45 42° NE
MSX 4.5 18:29:03 10° S 18:34:42 58° W 18:40:22 10° NNW
Tiangong 1 2.8 18:32:17 10° SSW 18:34:09 22° S 18:34:09 22° S
CZ-4 R/B 4.4 18:32:56 10° SW 18:35:56 19° W 18:38:56 10° NW
DMSP B5D1-3 4.4 18:34:10 10° NNE 18:39:21 87° ESE 18:44:29 10° SSW
COSMO-SKYMED 1 2.9 18:35:05 10° N 18:39:24 64° WNW 18:43:40 10° SSW
Nadezhda 3 Rocket 3.9 18:34:09 10° S 18:40:16 70° E 18:46:29 10° NNE
Meteor 2-21 4.3 18:35:51 10° N 18:42:03 76° E 18:48:11 10° SSE
GEOS 3 Rocket 3.5 18:40:45 10° SE 18:45:52 86° SW 18:51:01 10° NW
SL-24 R/B - RUBIN 2 4.5 18:40:18 10° SSW 18:46:22 61° ESE 18:48:47 38° NE
Cosmos 1844 Rocket 4.3 18:42:10 10° WSW 18:47:05 31° WNW 18:52:03 10° N
Cosmos 1975 3.6 18:49:41 10° NNW 18:53:39 51° W 18:57:34 10° S
ATLAS 3B CENTAUR R/B 3.9 18:40:03 10° WSW 18:56:20 43° S 19:00:10 26° SE
Cosmos 2297 3.5 18:52:47 10° SSW 18:58:23 70° ESE 18:59:27 56° NE
Meteor 2-14 Rocket 4.3 18:59:49 10° N 19:06:01 86° E 19:12:09 10° S
BREEZE-M R/B 4.1 18:57:17 10° WSW 19:06:45 58° NW 19:08:02 46° NNE
Meteor 1-19 Rocket 4.1 19:04:22 10° S 19:10:08 87° E 19:12:12 43° N
Cosmos 2278 Rocket 3.3 19:09:50 10° SW 19:15:07 40° WNW 19:18:28 21° N
OTV 4 3.9 19:20:56 10° WSW 19:21:18 12° WSW 19:21:18 12° WSW
Okean 1-7 Rocket 4.4 19:20:06 10° SSW 19:24:14 51° W 19:24:14 51° W
FALCON 9 R/B 3.0 19:06:15 10° WSW 19:25:08 66° S 19:26:28 56° SE
Timation 1 Rocket 4.3 19:23:33 10° SSW 19:29:25 82° W 19:29:25 82° W
BREEZE M DEB (TANK) 4.0 19:27:51 10° WSW 19:32:37 35° WNW 19:32:37 35° WNW
Cosmos 2082 Rocket 3.1 19:36:06 10° NNW 19:39:41 40° NNW 19:39:41 40° NNW
Timation 2 Rocket 4.3 19:36:35 10° NNW 19:43:22 70° WSW 19:44:53 54° S
Cosmos 1833 Rocket 4.2 19:41:58 10° NNW 19:44:32 28° NNW 19:44:32 28° NNW
BREEZE M DEB (TANK) 4.2 19:47:02 10° NW 19:50:34 56° NNW 19:50:34 56° NNW
CZ-3B DEB 4.4 20:18:41 10° WNW 20:24:12 34° N 20:24:12 34° N
